"Pseudo-MPEC" for C44GZR1 = C44EEK1 = C44KF11

Created 2025 Feb 25 14:59:00 UT using Find_Orb

Click here for an explanation of pseudo-MPECs

 
 Astrometry: 
     C44EEK1*1C2025 02 05.37306412 17 38.250+18 13 41.30   ~25Eq       VNEOCP703
     C44EEK1 1C2025 02 05.37533612 18 00.540+18 16 45.00   ~25Eq 18.25GVNEOCP703
     C44EEK1 1C2025 02 05.37760812 18 23.040+18 19 52.40   ~25Eq 18.44GVNEOCP703
     C44EEK1 KC2025 02 05.39620612 21 31.201+18 45 03.31   ~25Eq 17.54GVNEOCPI52
     C44EEK1 KC2025 02 05.39701612 21 39.517+18 46 09.37   ~25Eq 17.68GVNEOCPI52
     C44EEK1 KC2025 02 05.39782912 21 47.887+18 47 16.76   ~25Eq 17.63GVNEOCPI52
     C44EEK1 KC2025 02 05.39865312 21 56.329+18 48 23.72   ~25Eq 17.80GVNEOCPI52
     C44GZR1* C2025 02 19.37739511 53 35.048+17 43 15.17         18.11GVNEOCP703
     C44GZR1  C2025 02 19.37946011 53 42.760+17 45 13.86               VNEOCP703
     C44GZR1  C2025 02 19.38153011 53 50.269+17 47 09.71         18.63GVNEOCP703
     C44GZR1  C2025 02 19.38360811 53 57.966+17 49 06.82         18.62GVNEOCP703
     C44GZR1  C2025 02 19.42292711 56 26.617+18 24 07.78         18.46GVNEOCPI52
     C44GZR1  C2025 02 19.42429411 56 31.952+18 25 17.62         18.53GVNEOCPI52
     C44GZR1  C2025 02 19.42568011 56 37.381+18 26 28.97         18.61GVNEOCPI52
     C44GZR1  C2025 02 19.42705911 56 42.814+18 27 38.92         18.35GVNEOCPI52
     C44GZR1  C2025 02 19.45791711 58 10.233+18 45 20.34         18.1 GWNEOCPH01
     C44GZR1  C2025 02 19.45827611 58 51.985+18 53 11.54         18.13GVNEOCPI52
     C44GZR1  C2025 02 19.45965211 58 57.997+18 54 16.67         18.47GVNEOCPI52
     C44GZR1  C2025 02 19.46103711 59 04.096+18 55 21.79         18.27GVNEOCPI52
     C44GZR1  C2025 02 19.46241411 59 10.183+18 56 26.41         18.36GVNEOCPI52
     C44GZR1  C2025 02 19.46264711 58 31.941+18 48 56.48         18.4 GWNEOCPH01
     C44GZR1  C2025 02 19.47470411 59 29.252+18 57 56.88         17.8 GWNEOCPH01
     C44GZR1  C2025 02 19.48048211 59 57.783+19 02 10.26         18.3 GWNEOCPH01
     C44GZR1  C2025 02 19.52585512 04 34.666+19 42 20.35         18.1 GVNEOCPI52
     C44GZR1  C2025 02 19.52769612 04 45.619+19 43 34.12         18.5 GVNEOCPI52
     C44GZR1  C2025 02 19.52948512 04 56.366+19 44 45.63         18.4 GVNEOCPI52
     C44KF11*1C2025 02 25.41744211 27 15.592+15 23 08.92   ~2PEh 18.83GVNEOCP703
     C44KF11 1C2025 02 25.41951711 27 22.410+15 24 51.12   ~2PEh 18.77GVNEOCP703
     C44KF11 1C2025 02 25.42366511 27 36.306+15 28 17.33   ~2PEh 18.99GVNEOCP703
     C44KF11 KC2025 02 25.44086811 28 36.599+15 41 52.80   ~2PEh 18.62GVNEOCPI52
     C44KF11 KC2025 02 25.44127611 28 38.035+15 42 11.59   ~2PEh       VNEOCPI52
     C44KF11 KC2025 02 25.44169511 28 39.536+15 42 30.89   ~2PEh 18.67GVNEOCPI52
     C44KF11 KC2025 02 25.44211911 28 41.020+15 42 50.36   ~2PEh       VNEOCPI52
     C44KF11 KC2025 02 25.49089711 31 53.152+16 17 39.41   ~2PEh 18.50GVNEOCPI52
     C44KF11 KC2025 02 25.49141911 31 55.456+16 18 00.11   ~2PEh 18.58GVNEOCPI52
     C44KF11 KC2025 02 25.49193211 31 57.695+16 18 20.34   ~2PEh 18.56GVNEOCPI52
     C44KF11 KC2025 02 25.49245511 31 59.970+16 18 40.97   ~2PEh 18.56GVNEOCPI52
     C44KF11 KC2025 02 25.53554611 35 27.715+16 45 16.20   ~2PEh       VNEOCPI52
     C44KF11 KC2025 02 25.53606311 35 30.430+16 45 34.24   ~2PEh       VNEOCPI52
     C44KF11 KC2025 02 25.53657711 35 33.119+16 45 51.91   ~2PEh 18.40GVNEOCPI52
     C44KF11 KC2025 02 25.53709511 35 35.869+16 46 11.06   ~2PEh 18.60GVNEOCPI52

Station data:
(703) Catalina Sky Survey  (N32.417029 W110.732640)  US/Arizona.  Observer J.
   K. Hogan. Measurers T. Beuden, V. F. Carvajal, D. Fay, J. B. Fazekas, D.
   C. Fuls, A. R. Gibbs, A. D. Grauer, H. Gröller, J. K. Hogan, R. A.
   Kowalski, S. M. Larson, G. J. Leonard, D. Rankin, R. L. Seaman, F. C.
   Shelly, K. W. Wierzchoś. 0.68-m Schmidt + 10K CCD.
(H01) Magdalena Ridge Observatory, Socorro  (N33.984833 W107.189333)  US/New
   Mexico.  Observers W. H. Ryan, E. V. Ryan. Measurer W. H. Ryan. 2.4-m
   f/8.9 reflector + CCD.
(I52) Steward Observatory, Mt. Lemmon Station  (N32.442570 W110.788920)
   US/Arizona. Measurers T. Beuden, V. F. Carvajal, D. Fay, J. B. Fazekas, D.
   C. Fuls, A. R. Gibbs, A. D. Grauer, H. Gröller, J. K. Hogan, R. A.
   Kowalski, S. M. Larson, G. J. Leonard, D. Rankin, R. L. Seaman, F. C.
   Shelly, K. W. Wierzchoś. 1.0-m prime focus + CCD.

Orbital elements:  C44GZR1 = C44EEK1 = C44KF11
   Perigee 2025 Feb 18.455955 +/- 0.0012275 TT = 10:56:34.5 (JD 2460724.955955)
A1: (173.4172 +/- 1.0121)e-7   A2: (-0.9098 +/- 1.0197)e-7
A3: (-37.5478 +/- 4.7116)e-8 AU/day^2 [1/r^2]
Epoch 2025 Feb 19.0 TT = JDT 2460725.5                           Find_Orb
M 124.115370300 +/- 0.2751          (J2000 equator)
n 228.134459070 +/- 0.020023        Peri.  214.575425 +/- 0.05870
a 57254.49389 +/- 3.35              Node   143.079847 +/- 0.02517
e   0.85518915 +/- 0.00020864       Incl.   30.342978 +/- 0.01503
P2272.301m/1.578d          H 33.49  G  0.15   U 10.1
q 8291.071704 +/- 11.793    Q 106217.9160 +/- 15.184
From 41 observations 2025 Feb. 5-25; mean residual 24".813
Residuals in arcseconds: 
250205 703   99+ 34.8+    250219 I52 9.04- 11.3-    250225 703 1.31- 2.86-    
250205 703 83.5+ 28.1+    250219 H01 6.07- 6.51-    250225 I52 3.40- 3.61-    
250205 703 69.7+ 24.9+    250219 I52 2.29- 3.92-    250225 I52 3.69- 3.72-    
250205 I52 49.5- 17.2-    250219 I52 1.98- 3.39-    250225 I52 3.63- 3.80-    
250205 I52 54.8- 19.2-    250219 I52 1.44- 3.07-    250225 I52 4.12- 3.92-    
250205 I52 59.9- 20.2-    250219 I52 1.02- 2.65-    250225 I52 1.73- 5.69+    
250205 I52 66.0- 22.6-    250219 H01 4.68- 5.40-    250225 I52 1.20- 5.88+    
250219 703 11.3- 18.4-    250219 H01 .202- 1.80-    250225 I52 1.11- 5.98+    
250219 703 9.29- 16.0-    250219 H01 2.24+ 5.8m+    250225 I52 1.20- 6.13+    
250219 703 10.5- 16.4-    250219 I52 34.5+ 21.7+    250225 I52 14.2+ 22.3+    
250219 703 9.57- 15.4-    250219 I52 35.9+ 22.6+    250225 I52 14.2+ 22.6+    
250219 I52 9.39- 11.9-    250219 I52 37.5+ 23.5+    250225 I52 13.9+ 22.7+    
250219 I52 9.35- 12.0-    250225 703 .609+ 2.79-    250225 I52 14.1+ 24.1+    
250219 I52 9.29- 11.2-    250225 703 .748- 4.16-    

